This demonstration page uses our WeatherBlox Daily Observations layout. Learn more.

Left ArrowRight Arrow

41.86663, -103.66717

Hourly Observations for September 25, 2018

Temp ( °F °C ) Dew Point ( °F °C ) Humidity (%) Winds ( mph kmh ) Pressure ( in mb ) Visibility ( mi km ) Precip ( " mm )
12:41 am 00:41 Cloudy 52 11.1 48 8.9 86 86 NNW 15 24 29.97 1015 10 16 N/A
12:53 am 00:53 Cloudy with Light Rain 52 11.1 47 8.3 83 83 NNW 16 26 29.98 1015 10 16 N/A
1:05 am 01:05 Cloudy with Light Rain 51 10.6 46 7.8 83 83 NNW 25 41 30.00 1016 10 16 N/A
1:50 am 01:50 Cloudy with Light Rain 48 9 43 6 82 82 NNW 22 35 30.09 1019 10 16 N/A
1:53 am 01:53 Cloudy with Light Rain 49 9.4 42 5.6 77 77 NNW 24 39 30.03 1017 10 16 N/A
2:53 am 02:53 Cloudy with Light Rain 45 7.2 45 7.2 100 100 NNW 15 24 30.08 1019 10 16 0.01 0.25
3:53 am 03:53 Cloudy 44 6.7 44 6.7 100 100 NW 14 22 30.09 1019 10 16 N/A
4:53 am 04:53 Mostly Clear with Light Rain 43 6.1 42 5.6 97 97 W 8 13 30.11 1020 10 16 N/A
5:46 am 05:46 Mostly Cloudy with Light Rain 43 6.1 42 5.6 97 97 W 10 17 30.21 1023 10 16 N/A
5:53 am 05:53 Mostly Cloudy with Light Rain 43 6.1 42 5.6 97 97 W 13 20 30.14 1021 10 16 N/A
6:53 am 06:53 Sunny with Light Rain 41 5 40 4.4 96 96 WNW 8 13 30.17 1022 10 16 N/A
7:53 am 07:53 Sunny with Light Rain 45 7.2 42 5.6 90 90 W 12 19 30.19 1022 10 16 N/A
8:53 am 08:53 Sunny with Light Rain 48 8.9 41 5 77 77 W 12 19 30.21 1023 10 16 N/A
9:16 am 09:16 Mostly Cloudy with Light Rain 50 10 42 5.6 74 74 NW 9 15 30.24 1024 10 16 N/A
9:53 am 09:53 Mostly Cloudy with Light Rain 51 10.6 40 4.4 66 66 NW 16 26 30.23 1024 10 16 N/A
10:01 am 10:01 Partly Cloudy with Light Rain 54 12.2 40 4.4 59 59 NW 17 28 30.18 1022 10 16 N/A
10:53 am 10:53 Partly Cloudy 56 13.3 38 3.3 51 51 NW 13 20 30.21 1023 10 16 N/A
11:53 am 11:53 Partly Cloudy 59 15 34 1.1 39 39 NW 15 24 30.18 1022 10 16 N/A
12:53 pm 12:53 Partly Cloudy 62 16.7 33 0.6 34 34 NW 18 30 30.16 1022 10 16 N/A
1:53 pm 13:53 Sunny 65 18.3 30 -1.1 27 27 WNW 18 30 30.14 1021 10 16 N/A
2:53 pm 14:53 Mostly Sunny 66 18.9 30 -1.1 26 26 WNW 13 20 30.14 1021 10 16 N/A
3:53 pm 15:53 Mostly Cloudy 63 17.2 29 -1.7 28 28 N 10 17 30.15 1021 10 16 N/A
4:53 pm 16:53 Sunny 64 17.8 30 -1.1 28 28 N 14 22 30.14 1021 10 16 N/A
5:53 pm 17:53 Sunny 63 17.2 30 -1.1 29 29 NNW 10 17 30.16 1021 10 16 N/A
6:53 pm 18:53 Clear 55 12.8 33 0.6 44 44 NNE 9 15 30.21 1023 10 16 N/A
7:53 pm 19:53 Clear 51 10.6 37 2.8 59 59 NNE 10 17 30.24 1024 10 16 N/A
8:53 pm 20:53 Clear 46 7.8 37 2.8 71 71 NNE 9 15 30.28 1025 10 16 N/A
9:53 pm 21:53 Clear 46 7.8 37 2.8 71 71 SSE 6 9 30.30 1026 10 16 N/A
10:53 pm 22:53 Clear 43 6.1 36 2.2 76 76 N N/A 30.31 1027 10 16 N/A
11:53 pm 23:53 Clear 39 3.9 35 1.7 86 86 NNE 5 7 30.31 1027 10 16 N/A

Powered by AerisWeather